When you browse on this site, cookies collect data to enhance your experience and personalize the content and advertising you see.
Visit our Privacy Policy to learn more. By continuing to use the site, you agree to this use of cookies and data.
  • In Schweiz
  • Länderverzeichnis
  • Für 7 Tage
  • Wassertemperatur
  • Wetterkarte
  • Widgets
  • user-avatar
    Anmelden

    Stündliche Wetter Ajova-Siti

    Heute, 23 Januar, Donnerstag

    Zeit Temperatur Niederschläge Wind Luftdruck Luftfeuchtigkeit
    00:00 -3°C° 0.6 mm 4 m/S 741 mmHg 97%
    01:00 -3°C° 0.3 mm 4 m/S 741 mmHg 97%
    02:00 -4°C° 0.3 mm 4 m/S 741 mmHg 97%
    03:00 -4°C° 0.3 mm 4 m/S 740 mmHg 97%
    04:00 -4°C° 0.3 mm 3 m/S 740 mmHg 97%
    05:00 -2°C° 0.3 mm 3 m/S 740 mmHg 97%
    06:00 -2°C° 0.3 mm 3 m/S 740 mmHg 97%
    07:00 -2°C° 0.2 mm 2 m/S 740 mmHg 98%
    08:00 -2°C° 0.2 mm 2 m/S 740 mmHg 98%
    09:00 -1°C° 0.2 mm 2 m/S 740 mmHg 98%
    10:00 -1°C° 0.1 mm 2 m/S 740 mmHg 99%
    11:00 -1°C° 0.1 mm 2 m/S 740 mmHg 99%
    12:00 +2°C° 0.1 mm 1 m/S 740 mmHg 99%
    13:00 +2°C° 0 mm 1 m/S 740 mmHg 99%
    14:00 +2°C° 0 mm 1 m/S 739 mmHg 99%
    15:00 +1°C° 0 mm 0 m/S 739 mmHg 99%
    16:00 +2°C° 0 mm 1 m/S 739 mmHg 99%
    17:00 +2°C° 0 mm 1 m/S 739 mmHg 99%
    18:00 +1°C° 0 mm 2 m/S 740 mmHg 99%
    19:00 +1°C° 0.1 mm 2 m/S 740 mmHg 99%
    20:00 +1°C° 0.1 mm 2 m/S 740 mmHg 99%
    21:00 +1°C° 0.1 mm 2 m/S 740 mmHg 99%
    22:00 +1°C° 0.1 mm 2 m/S 740 mmHg 99%
    23:00 +1°C° 0.1 mm 2 m/S 740 mmHg 99%

    Morgen, 24 Januar, Freitag

    Zeit Temperatur Niederschläge Wind Luftdruck Luftfeuchtigkeit
    00:00 +1°C° 0.1 mm 2 m/S 739 mmHg 99%
    01:00 +1°C° 0.2 mm 2 m/S 739 mmHg 99%
    02:00 0°C° 0.2 mm 3 m/S 739 mmHg 99%
    03:00 0°C° 0.2 mm 3 m/S 739 mmHg 99%
    04:00 0°C° 0.4 mm 3 m/S 739 mmHg 99%
    05:00 0°C° 0.4 mm 3 m/S 739 mmHg 99%
    06:00 0°C° 0.4 mm 3 m/S 739 mmHg 99%
    07:00 0°C° 0.2 mm 3 m/S 739 mmHg 99%
    08:00 0°C° 0.2 mm 3 m/S 739 mmHg 99%
    09:00 0°C° 0.2 mm 3 m/S 739 mmHg 99%
    10:00 0°C° 0.1 mm 3 m/S 739 mmHg 99%
    11:00 0°C° 0.1 mm 3 m/S 739 mmHg 99%
    12:00 0°C° 0.1 mm 3 m/S 739 mmHg 99%
    13:00 0°C° 0.2 mm 3 m/S 738 mmHg 99%
    14:00 0°C° 0.2 mm 3 m/S 738 mmHg 99%
    15:00 0°C° 0.2 mm 3 m/S 738 mmHg 99%
    16:00 -1°C° 0.2 mm 4 m/S 738 mmHg 99%
    17:00 -1°C° 0.2 mm 4 m/S 739 mmHg 99%
    18:00 -1°C° 0.2 mm 4 m/S 739 mmHg 99%
    19:00 -1°C° 0.1 mm 4 m/S 739 mmHg 99%
    20:00 -1°C° 0.1 mm 4 m/S 739 mmHg 98%
    21:00 -1°C° 0.1 mm 4 m/S 739 mmHg 98%
    22:00 -1°C° 0.1 mm 4 m/S 740 mmHg 98%
    23:00 -1°C° 0.1 mm 4 m/S 740 mmHg 97%

    übermorgen, 25 Januar, Samstag

    Zeit Temperatur Niederschläge Wind Luftdruck Luftfeuchtigkeit
    00:00 -2°C° 0.1 mm 4 m/S 740 mmHg 97%
    01:00 -2°C° 0.1 mm 4 m/S 740 mmHg 97%
    02:00 -3°C° 0.1 mm 4 m/S 740 mmHg 96%
    03:00 -4°C° 0.1 mm 5 m/S 740 mmHg 96%
    04:00 -3°C° 0 mm 4 m/S 740 mmHg 95%
    05:00 -4°C° 0 mm 4 m/S 741 mmHg 95%
    06:00 -4°C° 0 mm 4 m/S 741 mmHg 94%
    07:00 -4°C° 0 mm 4 m/S 741 mmHg 95%
    08:00 -4°C° 0 mm 4 m/S 742 mmHg 95%
    09:00 -4°C° 0 mm 4 m/S 742 mmHg 95%
    10:00 -4°C° 0 mm 4 m/S 742 mmHg 95%
    11:00 -4°C° 0 mm 4 m/S 743 mmHg 95%
    12:00 -3°C° 0 mm 4 m/S 743 mmHg 95%
    13:00 -3°C° 0 mm 4 m/S 742 mmHg 95%
    14:00 -3°C° 0 mm 4 m/S 742 mmHg 95%
    15:00 -3°C° 0 mm 4 m/S 742 mmHg 95%
    16:00 -3°C° 0 mm 4 m/S 742 mmHg 94%
    17:00 -3°C° 0 mm 4 m/S 742 mmHg 94%
    18:00 -2°C° 0 mm 3 m/S 743 mmHg 93%
    19:00 -4°C° 0 mm 3 m/S 743 mmHg 93%
    20:00 -4°C° 0 mm 3 m/S 743 mmHg 93%
    21:00 -3°C° 0 mm 2 m/S 743 mmHg 93%
    22:00 -4°C° 0 mm 2 m/S 743 mmHg 93%
    23:00 -4°C° 0 mm 2 m/S 743 mmHg 93%

    26 Januar, Sonntag

    Zeit Temperatur Niederschläge Wind Luftdruck Luftfeuchtigkeit
    00:00 -4°C° 0 mm 2 m/S 743 mmHg 93%
    01:00 -5°C° 0 mm 2 m/S 743 mmHg 94%
    02:00 -6°C° 0 mm 2 m/S 743 mmHg 94%
    03:00 -7°C° 0 mm 2 m/S 743 mmHg 95%
    04:00 -7°C° 0 mm 2 m/S 742 mmHg 95%
    05:00 -7°C° 0 mm 1 m/S 742 mmHg 94%
    06:00 -7°C° 0 mm 1 m/S 742 mmHg 94%
    07:00 -6°C° 0 mm 1 m/S 742 mmHg 93%
    08:00 -6°C° 0 mm 1 m/S 743 mmHg 92%
    09:00 -6°C° 0 mm 1 m/S 743 mmHg 92%
    10:00 -4°C° 0 mm 1 m/S 743 mmHg 90%
    11:00 -3°C° 0 mm 1 m/S 743 mmHg 88%
    12:00 -2°C° 0 mm 1 m/S 743 mmHg 86%
    13:00 -1°C° 0 mm 1 m/S 742 mmHg 87%
    14:00 -1°C° 0 mm 1 m/S 742 mmHg 88%
    15:00 0°C° 0 mm 1 m/S 741 mmHg 89%
    16:00 -1°C° 0 mm 1 m/S 741 mmHg 91%
    17:00 -1°C° 0 mm 1 m/S 741 mmHg 92%
    18:00 -2°C° 0 mm 1 m/S 741 mmHg 94%
    19:00 -1°C° 0 mm 1 m/S 741 mmHg 95%
    20:00 -1°C° 0 mm 1 m/S 741 mmHg 95%
    21:00 -1°C° 0 mm 1 m/S 741 mmHg 96%
    22:00 0°C° 0 mm 1 m/S 741 mmHg 96%
    23:00 -2°C° 0 mm 2 m/S 741 mmHg 96%

    27 Januar, Montag

    Zeit Temperatur Niederschläge Wind Luftdruck Luftfeuchtigkeit
    00:00 -2°C° 0 mm 2 m/S 741 mmHg 97%
    01:00 -2°C° 0 mm 2 m/S 741 mmHg 97%
    02:00 -2°C° 0 mm 2 m/S 741 mmHg 97%
    03:00 0°C° 0 mm 1 m/S 741 mmHg 97%
    04:00 0°C° 0 mm 1 m/S 741 mmHg 97%
    05:00 0°C° 0 mm 1 m/S 741 mmHg 96%
    06:00 -2°C° 0 mm 2 m/S 741 mmHg 96%
    07:00 -1°C° 0 mm 2 m/S 741 mmHg 96%
    08:00 -1°C° 0 mm 2 m/S 741 mmHg 96%
    09:00 -1°C° 0 mm 2 m/S 741 mmHg 96%
    10:00 -1°C° 0 mm 2 m/S 741 mmHg 97%
    11:00 -1°C° 0 mm 2 m/S 741 mmHg 98%
    12:00 -1°C° 0 mm 3 m/S 741 mmHg 99%
    13:00 -1°C° 0 mm 3 m/S 741 mmHg 98%
    14:00 -1°C° 0 mm 3 m/S 741 mmHg 97%
    15:00 -1°C° 0 mm 3 m/S 740 mmHg 95%
    16:00 -1°C° 0 mm 3 m/S 741 mmHg 95%
    17:00 -2°C° 0 mm 2 m/S 741 mmHg 94%
    18:00 -3°C° 0 mm 2 m/S 741 mmHg 93%
    19:00 -3°C° 0 mm 2 m/S 741 mmHg 93%
    20:00 -4°C° 0 mm 2 m/S 741 mmHg 93%
    21:00 -4°C° 0 mm 2 m/S 742 mmHg 94%
    22:00 -4°C° 0 mm 2 m/S 742 mmHg 94%
    23:00 -4°C° 0 mm 2 m/S 742 mmHg 94%

    28 Januar, Dienstag

    Zeit Temperatur Niederschläge Wind Luftdruck Luftfeuchtigkeit
    00:00 -4°C° 0 mm 2 m/S 742 mmHg 94%
    01:00 -4°C° 0 mm 2 m/S 742 mmHg 94%
    02:00 -4°C° 0 mm 2 m/S 742 mmHg 94%
    03:00 -3°C° 0 mm 2 m/S 742 mmHg 94%
    04:00 -3°C° 0 mm 2 m/S 742 mmHg 95%
    05:00 -3°C° 0 mm 2 m/S 742 mmHg 95%
    06:00 -3°C° 0 mm 2 m/S 742 mmHg 95%
    07:00 -4°C° 0 mm 2 m/S 742 mmHg 94%
    08:00 -4°C° 0 mm 2 m/S 743 mmHg 92%
    09:00 -4°C° 0 mm 2 m/S 743 mmHg 91%
    10:00 -4°C° 0 mm 2 m/S 743 mmHg 91%
    11:00 -4°C° 0 mm 2 m/S 743 mmHg 91%
    12:00 -5°C° 0 mm 3 m/S 743 mmHg 90%
    13:00 -4°C° 0 mm 2 m/S 743 mmHg 90%
    14:00 -4°C° 0 mm 2 m/S 742 mmHg 89%
    15:00 -3°C° 0 mm 2 m/S 742 mmHg 89%
    16:00 -4°C° 0 mm 2 m/S 742 mmHg 90%
    17:00 -5°C° 0 mm 2 m/S 743 mmHg 92%
    18:00 -6°C° 0 mm 2 m/S 743 mmHg 93%
    19:00 -6°C° 0 mm 2 m/S 743 mmHg 93%
    20:00 -6°C° 0 mm 2 m/S 743 mmHg 93%
    21:00 -7°C° 0 mm 2 m/S 744 mmHg 93%
    22:00 -6°C° 0 mm 1 m/S 744 mmHg 93%
    23:00 -6°C° 0 mm 1 m/S 744 mmHg 93%
    Mehr zeigen